GEFSMA_500_meanwind_198.txt.gz
Wind_Speed
24 23 22 22 23 23 22 22 23 23 23 23 22 22 22 22 23 23 23 23 23 24 24 24 25 24 24 25 26 26 26 27 26 26 26 26 26 26 26 25 26 27 27
25 24 24 24 23 24 24 23 24 24 23 23 23 23 23 24 23 24 24 24 24 25 25 25 25 25 25 26 26 27 27 27 27 27 27 27 27 27 27 26 27 27 28
26 25 25 24 24 24 24 25 24 24 23 23 23 24 24 24 23 24 24 25 25 25 25 26 26 26 26 27 27 27 28 28 28 28 28 28 28 28 28 28 27 28 28
26 26 25 24 25 24 25 25 24 25 24 24 24 24 24 24 24 24 24 25 25 25 25 25 26 27 27 27 27 28 28 28 29 29 29 29 29 29 28 29 29 29 29
26 27 26 25 25 25 26 26 26 25 24 24 24 24 25 25 25 24 25 24 24 25 26 26 26 27 27 27 28 28 29 29 29 30 30 31 30 31 30 29 30 30 30
27 27 27 26 26 26 26 27 26 26 25 25 25 25 25 26 25 25 25 25 24 25 26 26 26 27 28 29 29 29 29 29 30 31 32 32 32 32 31 30 30 31 31
27 28 27 27 26 26 26 26 26 26 26 26 25 25 25 26 26 26 26 25 25 25 26 26 26 27 27 29 30 30 29 30 30 30 32 34 33 33 33 32 31 31 32
28 27 27 27 27 27 26 25 25 25 25 26 26 25 25 26 26 26 26 26 25 26 26 27 27 27 28 29 29 30 30 30 31 30 31 33 34 34 34 34 33 33 33
27 28 26 26 26 26 26 25 25 25 25 25 26 26 26 27 27 28 28 27 27 27 27 28 28 28 29 29 29 29 30 31 32 32 32 33 33 34 33 35 35 35 34
27 26 26 26 25 25 25 25 25 25 24 25 26 27 28 28 28 28 28 28 28 28 28 28 29 29 30 30 30 30 31 31 32 33 33 34 34 34 35 35 35 35 35
26 25 24 24 25 25 25 25 25 25 25 25 26 27 27 28 29 28 28 27 28 28 28 29 29 30 31 31 32 33 33 33 34 34 34 35 35 35 36 36 36 36 36
24 23 23 23 24 25 25 25 24 25 25 26 26 27 27 28 28 28 27 27 28 28 29 29 30 31 31 32 32 33 34 35 35 36 36 36 36 36 37 36 36 36 37
24 23 22 22 22 22 22 23 23 24 25 25 25 26 26 26 27 27 27 27 27 28 29 30 31 32 32 33 33 34 35 35 35 36 37 37 37 37 37 37 38 38 37
23 22 22 22 21 21 21 22 23 24 24 24 24 24 24 24 25 26 26 27 27 28 30 31 32 32 32 33 33 34 35 36 35 35 36 37 38 38 37 37 37 38 38
21 21 21 20 19 20 21 21 22 22 22 23 23 23 23 23 24 25 25 26 28 28 29 30 31 31 32 32 33 34 34 35 36 36 36 38 38 38 38 38 38 38 38
20 19 20 19 18 19 19 20 20 21 21 22 23 23 23 23 24 24 25 27 28 28 28 29 29 30 32 33 33 34 35 36 36 37 37 37 38 38 38 37 37 37 38
19 19 19 18 18 18 19 20 21 21 21 22 23 23 24 24 24 24 25 26 27 28 28 28 29 30 30 30 30 32 33 34 35 36 37 37 38 38 38 38 37 38 39
20 19 19 19 18 18 19 20 20 21 21 22 23 24 24 24 23 23 24 26 27 28 28 27 27 28 29 28 28 29 31 32 32 34 35 36 36 37 37 37 38 39 39
19 19 19 19 18 18 18 19 19 20 21 22 23 24 24 23 23 23 24 25 26 27 27 27 26 26 26 27 27 28 29 30 31 32 34 35 35 36 37 37 38 39 39
19 19 18 18 17 17 18 18 19 19 20 20 21 22 23 23 23 24 24 24 25 25 25 24 24 25 26 27 28 28 28 29 30 31 31 32 34 36 37 37 38 39 39
18 18 17 17 17 17 17 18 18 19 18 19 19 20 21 21 22 23 22 22 23 23 23 24 24 25 25 26 28 28 28 28 29 30 30 31 33 35 36 36 37 38 39
17 16 16 16 16 16 16 16 17 17 17 17 18 18 19 19 20 21 21 21 22 22 22 22 23 24 24 24 25 26 27 28 29 29 30 31 32 33 34 35 36 36 38
16 15 14 15 15 15 15 16 15 15 16 16 17 18 19 19 19 19 19 20 20 20 20 21 21 21 22 21 21 23 25 26 27 27 28 29 31 32 34 35 36 37 37
14 13 13 13 13 14 14 14 15 15 16 17 18 18 19 19 18 18 18 18 18 18 18 18 18 19 19 19 20 20 22 22 23 25 26 27 29 30 32 34 35 35 36
13 12 12 11 12 12 12 13 14 14 15 16 17 17 17 17 17 17 17 17 17 16 16 17 17 17 17 18 19 19 20 21 21 23 25 26 28 29 30 32 32 33 34
12 11 11 11 11 11 12 12 13 14 14 15 16 16 16 16 16 16 16 16 16 16 16 16 16 16 17 18 19 20 21 22 22 23 24 26 27 28 29 29 30 30 31

GEFSMA_500_meanwind_204.txt.gz
Wind_Speed
24 25 25 25 25 24 24 23 22 22 22 22 23 23 22 20 20 21 22 22 22 22 23 23 22 22 23 24 24 26 26 26 26 26 26 25 25 25 25 25 25 25 25
26 26 26 25 25 26 25 23 23 23 23 23 22 23 23 21 20 21 21 21 22 22 23 24 24 23 24 24 25 26 27 27 27 27 27 27 27 26 26 26 26 26 26
27 27 26 26 26 26 25 24 24 23 23 23 22 22 22 22 22 22 21 21 22 22 22 23 24 24 24 25 25 26 26 28 28 28 28 28 28 29 28 27 27 27 27
28 27 27 25 25 25 25 24 24 23 23 23 23 22 22 23 23 22 23 22 22 23 23 23 24 24 24 25 26 26 27 28 28 29 29 30 30 30 30 29 28 28 28
26 26 25 24 24 25 25 24 23 23 23 23 23 23 23 23 23 22 22 23 23 23 23 23 24 24 25 25 26 27 27 28 28 28 29 30 30 31 31 30 30 30 30
26 24 24 24 24 24 24 24 24 23 23 23 24 24 24 24 23 23 23 23 24 25 24 24 24 25 26 26 26 27 27 28 28 29 30 30 31 31 31 31 31 31 31
26 25 25 24 24 24 24 24 24 24 24 24 24 24 25 24 24 24 24 24 24 25 24 25 25 26 26 26 27 27 28 28 29 29 30 30 31 31 31 31 32 32 32
25 25 26 25 24 23 23 24 24 24 25 24 24 24 24 24 25 25 25 25 25 25 25 25 25 26 27 27 28 28 29 29 29 29 30 31 31 32 32 33 33 32 32
26 26 26 24 22 22 22 24 24 24 25 25 24 24 24 24 24 25 26 26 26 25 25 27 27 27 28 28 28 28 29 30 30 31 31 31 31 32 32 33 33 33 33
26 26 25 24 23 22 22 23 24 24 25 26 25 24 24 25 25 25 26 26 26 26 26 26 27 28 29 28 29 29 30 31 31 31 32 32 32 33 33 33 34 34 34
26 25 24 23 23 23 23 23 24 25 25 25 25 25 26 25 26 27 26 27 27 27 27 27 28 28 29 29 28 29 30 31 32 32 32 33 33 34 34 35 35 35 35
25 24 24 24 24 24 24 24 24 24 24 25 25 25 26 26 27 27 26 26 26 27 27 27 28 28 28 29 30 31 32 33 33 32 33 34 35 35 35 36 36 36 35
24 24 24 24 23 23 23 23 23 23 24 24 24 25 26 26 27 27 27 27 27 27 27 28 28 29 29 29 31 31 32 33 33 33 33 34 36 36 36 36 37 37 37
23 22 23 22 22 22 22 22 23 23 23 24 25 25 25 25 26 26 26 26 26 26 27 27 28 30 29 29 30 30 31 31 32 33 34 35 36 36 37 37 37 38 39
22 22 22 22 22 21 21 22 23 23 23 24 24 24 24 24 25 25 25 26 26 27 27 28 28 29 29 29 29 30 30 30 30 32 33 33 35 36 37 37 38 38 38
22 21 21 21 21 21 20 21 22 22 23 23 23 23 24 24 24 24 24 26 27 28 28 28 28 28 29 28 28 28 29 29 30 31 32 32 33 34 35 36 37 37 37
21 20 20 20 21 20 20 21 22 22 21 21 22 23 24 24 24 25 26 27 27 28 28 28 27 28 28 27 27 27 27 28 29 30 31 32 32 33 34 35 36 36 37
20 20 20 20 20 20 21 21 22 21 21 21 22 23 23 23 24 24 26 26 26 26 27 26 26 26 26 26 25 26 26 27 29 29 30 31 32 33 34 35 35 36 36
19 19 19 19 20 20 21 21 21 20 20 21 22 21 21 22 22 23 24 24 24 25 25 25 25 24 24 25 25 26 26 27 28 29 29 31 31 32 34 35 35 35 37
18 17 18 19 19 19 20 20 20 20 20 20 20 20 20 20 21 21 22 23 23 23 24 24 24 24 24 24 24 25 25 26 27 27 28 29 30 30 32 33 34 35 36
17 18 18 18 18 18 19 19 19 19 18 17 18 18 18 19 20 20 22 22 22 22 22 22 23 22 22 22 23 24 24 24 25 26 26 27 28 29 30 32 33 34 35
17 17 17 17 17 17 17 17 17 16 16 16 16 17 17 18 19 19 20 21 21 21 21 21 21 21 21 20 21 22 23 23 24 25 25 26 28 28 30 31 32 33 34
16 17 17 16 16 16 16 16 15 15 15 15 15 15 16 17 18 19 19 19 19 19 19 20 20 20 20 20 20 21 22 23 23 23 24 25 27 28 29 30 30 31 33
16 16 16 15 15 14 14 13 14 14 14 14 15 15 16 17 18 18 17 18 18 18 18 18 19 20 20 20 20 21 22 22 23 22 22 23 25 26 27 28 29 30 32
15 15 15 14 13 13 13 13 13 13 14 14 14 15 16 17 17 17 17 17 17 17 16 17 18 19 19 19 19 19 20 21 21 22 22 23 23 24 26 26 27 29 30
15 14 13 12 12 12 12 12 13 13 14 13 14 15 16 16 16 16 16 16 16 16 16 15 16 17 17 18 17 18 19 20 20 21 22 22 23 24 25 26 27 28 29

GEFSMA_500_meanwind_210.txt.gz
Wind_Speed
24 24 24 24 23 23 23 23 22 22 22 22 22 21 21 21 21 21 22 22 22 22 21 21 22 21 22 22 22 23 24 24 25 25 26 25 25 25 25 25 25 24 25
25 25 25 25 24 23 23 22 22 21 21 22 22 22 21 21 22 21 22 22 23 23 23 22 23 23 22 23 24 23 23 24 24 25 26 26 27 27 27 26 26 26 26
25 25 25 25 24 24 24 24 23 22 21 21 21 21 22 22 22 22 22 22 22 23 23 23 23 23 23 23 23 23 24 24 25 25 25 26 27 28 28 27 27 27 27
25 26 26 24 24 24 24 24 23 22 21 21 21 21 21 21 22 22 22 22 23 23 23 23 24 24 24 24 24 23 24 25 25 26 26 27 27 28 29 29 29 29 29
25 26 24 24 24 24 23 23 22 21 21 21 21 21 21 21 21 22 22 22 23 23 23 23 23 24 25 25 25 25 24 26 26 26 27 27 27 28 29 29 30 30 29
26 25 24 23 23 23 22 22 22 22 22 21 21 21 21 22 21 22 23 23 23 23 24 24 23 23 24 24 24 25 25 26 26 27 27 28 29 29 29 30 30 30 30
23 23 23 22 22 23 22 21 21 22 22 22 22 21 22 22 22 22 22 22 23 23 23 24 24 24 24 24 25 25 25 26 26 27 28 29 29 30 30 31 31 31 31
23 23 23 22 22 22 22 21 22 22 22 22 22 22 22 22 22 22 22 23 23 23 23 24 24 25 25 25 25 26 26 27 27 27 29 30 30 30 30 31 32 32 32
23 22 22 22 23 22 22 22 22 22 22 22 22 21 21 21 22 22 23 23 23 24 24 24 24 26 26 26 26 27 27 28 29 30 30 30 31 31 31 31 32 33 33
23 23 23 22 22 21 21 22 22 22 21 21 21 22 22 22 22 22 23 23 24 24 25 25 26 27 28 28 28 29 29 30 31 31 32 32 32 32 32 33 33 34 34
23 23 23 22 22 22 22 21 21 20 21 21 21 22 23 22 22 23 23 24 24 24 25 26 27 28 29 29 29 30 31 31 32 32 32 33 33 34 34 34 35 35 36
23 23 21 21 21 21 20 20 20 21 21 21 21 22 22 22 22 22 23 24 24 25 26 26 27 28 29 30 30 30 31 32 32 32 32 32 33 34 35 36 36 36 37
21 21 21 21 20 20 20 20 20 20 20 21 21 22 22 22 23 23 23 23 24 25 26 27 27 28 29 30 30 30 31 31 32 32 33 33 33 34 35 35 36 37 37
21 20 20 20 20 19 19 20 20 20 21 21 22 23 23 23 23 24 24 24 24 25 26 27 28 29 29 30 30 30 30 32 33 33 33 33 34 35 36 36 36 36 37
20 19 19 19 19 19 19 20 19 20 20 21 22 22 23 23 23 23 24 24 25 25 25 27 28 29 28 28 29 30 30 31 32 33 33 33 33 34 35 36 36 36 36
19 19 17 18 18 18 19 19 18 18 19 20 21 21 21 22 22 22 23 24 24 24 25 26 26 26 27 28 29 29 30 31 31 33 33 33 33 33 35 36 37 37 37
17 17 17 17 17 17 18 18 18 18 19 20 21 20 19 19 20 21 21 22 22 23 23 24 25 25 26 26 27 27 29 30 31 32 33 33 34 34 34 36 37 38 37
15 16 16 17 17 16 16 17 17 17 18 19 19 18 18 17 17 18 19 20 21 21 21 22 22 23 24 25 26 26 27 28 30 31 32 32 33 34 35 36 37 37 38
14 15 15 16 15 15 16 16 17 18 19 19 19 17 17 17 17 18 18 18 19 20 20 20 21 22 23 25 25 27 27 28 29 29 30 31 32 33 34 36 36 37 38
13 13 13 14 14 15 16 16 17 17 18 18 17 16 16 17 17 16 17 18 18 19 19 20 21 21 22 23 24 25 26 27 27 28 28 29 31 32 33 34 35 36 37
13 12 12 13 13 14 15 15 16 15 16 16 15 15 15 15 15 16 17 18 18 19 19 20 20 20 20 21 22 23 24 25 26 26 26 28 30 31 31 32 34 36 36
13 12 13 13 13 13 14 14 15 15 15 14 14 14 14 14 15 16 17 17 18 18 19 19 19 19 19 20 21 23 23 23 24 25 25 26 27 29 30 31 32 33 34
12 12 12 12 13 13 13 14 14 14 13 13 13 14 14 14 14 15 16 16 17 18 18 18 18 18 19 19 20 21 22 23 23 24 25 24 25 27 28 29 29 31 32
12 10 11 12 12 13 13 14 14 13 13 13 13 13 13 14 14 15 15 16 16 17 17 17 17 17 17 18 19 19 21 21 23 24 24 25 25 25 26 28 29 30 31
11 10 12 12 12 12 13 13 13 13 13 12 13 13 13 14 14 15 15 15 16 16 17 17 17 17 18 18 18 19 19 20 21 23 24 24 25 26 27 27 28 29 31
13 13 13 13 12 12 13 13 12 12 12 12 13 13 13 13 14 14 15 15 16 16 16 17 18 18 18 19 18 18 18 19 20 21 22 24 25 25 25 26 27 28 29

GEFSMA_500_meanwind_216.txt.gz
Wind_Speed
23 23 23 23 23 23 24 24 24 23 22 22 22 22 22 21 21 21 21 21 21 21 22 22 22 22 23 23 22 22 22 23 23 24 23 24 24 24 23 23 23 23 23
24 25 25 25 24 24 25 26 25 25 24 23 23 23 22 22 21 22 21 22 22 22 23 23 23 23 23 23 24 23 23 23 23 24 24 25 25 25 24 24 24 24 24
26 25 25 25 25 25 26 26 26 26 24 24 24 24 23 23 22 22 22 22 22 23 23 24 24 25 24 25 25 24 24 24 24 25 25 26 26 25 25 25 25 25 25
26 25 25 25 25 25 25 25 26 26 25 25 25 25 25 24 23 23 23 23 23 23 24 25 26 26 25 25 25 25 25 25 25 25 26 26 27 26 26 26 26 26 26
25 25 25 24 25 26 26 25 25 25 25 25 25 25 25 25 24 24 24 24 24 24 24 25 26 27 27 26 26 26 27 26 26 26 26 26 26 26 26 26 26 26 27
25 24 24 24 24 25 26 25 25 25 25 25 25 25 25 25 25 25 25 24 24 24 24 25 25 26 26 26 26 26 26 26 26 26 26 26 27 27 27 27 27 27 28
25 24 23 23 23 23 24 24 24 24 23 24 24 23 24 24 24 24 25 25 25 24 24 24 24 24 25 25 25 25 25 26 26 27 27 27 27 28 28 28 28 28 28
25 24 24 24 24 24 23 24 24 23 24 24 23 23 23 24 24 24 24 24 25 24 24 24 24 25 25 26 26 26 27 26 27 27 27 28 28 29 29 29 29 29 29
26 25 25 25 25 24 23 23 23 24 24 23 23 23 23 24 25 24 25 24 24 25 25 25 25 25 25 26 27 27 27 27 28 28 28 29 29 29 30 30 30 31 30
25 25 25 24 23 23 23 23 24 24 24 24 23 23 23 24 25 25 25 25 25 25 25 26 25 25 26 27 27 28 29 29 29 29 29 29 30 30 31 31 31 31 32
25 25 25 24 23 22 21 22 23 24 24 24 24 24 23 24 24 25 25 25 25 25 25 26 26 26 27 27 28 29 29 30 30 30 30 30 31 31 32 32 32 32 32
24 23 24 23 22 22 21 22 23 23 24 24 24 24 23 23 23 24 24 25 25 25 26 26 27 27 28 29 30 30 30 31 31 31 31 31 31 32 32 33 33 33 33
21 22 22 22 21 21 21 21 22 22 22 23 23 23 23 23 23 23 24 25 25 26 26 27 28 28 29 30 30 31 31 31 32 32 32 32 32 33 33 34 34 34 34
21 21 22 22 22 21 20 21 22 22 22 22 22 22 22 22 23 24 24 25 26 26 27 28 28 28 29 29 30 30 31 32 32 32 33 33 33 34 34 35 35 36 36
21 20 20 21 22 21 21 21 22 23 22 21 22 23 22 22 23 24 24 25 25 25 25 27 27 28 29 29 30 30 31 31 32 33 34 35 35 35 35 36 36 37 37
21 20 19 20 20 21 21 21 21 22 23 22 22 23 22 22 22 23 24 25 25 25 25 26 26 27 28 28 29 30 30 32 33 34 35 35 35 35 36 36 37 37 38
19 19 18 19 20 20 20 20 20 21 21 21 21 21 22 22 22 22 23 23 23 23 23 24 25 26 26 27 27 28 29 30 31 31 32 34 36 36 37 37 37 38 39
19 18 17 18 18 19 19 19 19 19 20 20 20 20 20 21 21 21 20 20 21 22 22 22 23 24 24 24 25 25 27 28 29 30 31 32 35 36 36 37 37 38 39
18 18 17 17 17 18 19 18 18 18 18 18 18 18 18 18 19 20 20 20 21 21 21 22 22 23 23 23 23 24 25 26 28 29 31 32 33 34 36 36 36 37 38
17 17 18 18 18 17 16 15 15 16 16 17 17 17 17 18 19 19 20 20 20 20 20 20 21 21 22 22 23 24 25 25 26 27 28 29 30 31 33 34 35 36 37
18 17 17 17 17 16 16 15 15 16 16 16 16 17 17 18 18 18 19 18 18 18 18 18 19 20 21 22 22 23 24 24 24 25 26 27 28 29 30 32 33 34 34
17 16 17 17 17 17 16 16 16 16 17 17 17 17 18 18 18 18 18 18 18 18 18 18 18 19 20 21 23 23 23 23 22 23 25 26 26 27 28 30 31 33 34
16 16 17 17 17 17 18 17 17 17 17 17 17 17 18 19 19 19 19 18 18 17 17 18 18 19 20 21 22 22 22 22 22 23 24 24 25 26 27 28 30 31 32
17 17 17 17 17 17 18 17 17 17 17 17 17 17 18 18 18 18 18 18 17 17 17 18 18 18 19 20 21 21 22 22 23 23 24 24 25 26 27 28 29 30 31
19 18 18 17 17 17 16 17 17 17 17 17 17 17 18 17 16 16 17 17 17 16 17 18 17 17 19 20 20 21 21 22 22 23 24 24 25 26 26 27 28 29 30
18 18 17 17 17 16 16 16 16 16 17 17 17 17 17 16 16 16 16 16 16 16 17 17 17 18 19 20 20 21 22 22 22 23 24 24 24 25 25 25 26 27 28

GEFSMA_500_meanwind_222.txt.gz
Wind_Speed
21 22 21 20 20 21 21 22 22 22 22 21 20 21 21 21 21 21 21 21 21 21 20 20 20 19 20 20 21 21 22 22 22 22 22 21 22 22 22 23 24 23 22
22 21 21 21 21 22 22 22 23 22 23 23 22 21 22 22 22 22 22 22 22 21 21 21 21 20 21 21 22 22 23 23 23 23 23 23 23 23 23 24 24 24 24
23 23 22 22 22 22 23 23 23 22 22 23 23 23 23 23 23 23 23 23 23 22 22 22 23 22 22 23 23 23 23 23 23 24 24 24 24 24 24 24 25 25 25
24 23 23 22 22 22 22 22 23 22 23 23 23 24 24 24 23 24 24 24 23 23 23 24 24 24 24 23 23 23 23 23 23 24 24 24 24 24 25 25 25 26 26
25 25 24 23 23 23 23 23 23 23 23 23 23 24 24 25 25 25 25 24 24 24 24 24 24 24 24 24 24 23 24 24 24 24 25 25 25 25 26 26 26 27 27
25 25 24 24 24 23 23 23 24 23 23 23 23 23 24 25 26 25 26 25 25 25 25 24 24 24 24 24 24 25 25 25 25 25 26 26 26 27 27 28 28 28 28
24 24 24 24 24 24 23 23 24 24 23 23 23 23 24 25 25 26 26 26 26 26 25 25 25 24 24 24 24 25 25 26 25 25 25 27 28 28 28 29 29 29 29
24 24 24 24 23 23 23 23 24 24 23 23 23 23 23 24 25 25 25 26 26 25 25 25 25 24 24 24 25 25 25 25 25 25 25 26 27 28 28 28 28 28 28
23 24 24 24 24 24 24 24 23 24 24 24 24 23 23 22 23 24 24 25 25 25 25 25 25 25 25 25 25 25 25 26 26 26 27 27 28 29 28 28 28 28 29
23 23 24 24 24 24 24 23 23 23 24 24 24 23 23 23 24 24 25 25 26 26 26 26 26 26 27 27 27 27 27 28 28 28 28 28 28 29 29 30 29 29 29
21 22 22 23 24 24 24 22 22 22 22 23 24 23 23 23 23 25 25 26 26 26 26 26 26 27 27 28 29 29 30 30 29 29 29 29 29 29 29 31 31 31 31
21 22 22 22 23 24 24 23 22 23 22 22 23 23 24 23 23 24 24 26 27 26 26 26 27 28 28 28 29 30 31 30 30 30 30 30 30 30 30 31 32 33 33
22 22 21 21 22 23 23 23 22 23 23 23 24 24 24 24 24 24 25 26 26 26 26 26 27 27 28 28 29 29 30 30 30 30 31 31 31 31 31 31 32 34 34
21 21 21 21 21 22 22 22 23 23 24 24 25 25 25 25 25 24 25 26 26 26 26 26 26 27 28 28 28 29 29 29 29 30 31 32 32 32 33 32 32 33 35
21 21 21 21 20 21 21 22 23 24 24 24 25 25 25 25 25 25 24 25 26 26 26 27 27 27 27 27 28 28 28 28 29 30 31 32 32 33 34 34 34 34 35
21 22 22 21 21 20 21 22 22 22 22 22 23 24 24 25 26 25 25 24 24 26 26 26 26 26 27 27 27 28 28 28 29 29 30 31 33 34 35 36 36 36 36
22 22 21 21 22 22 21 22 22 22 22 23 22 23 23 24 25 25 24 24 24 24 25 26 26 26 27 27 26 27 27 27 28 29 30 31 32 34 35 35 36 37 37
21 21 21 21 21 21 21 21 21 22 22 22 22 22 23 23 23 23 24 24 24 24 24 24 25 26 26 26 26 26 26 26 28 29 29 30 31 33 34 35 36 37 38
21 20 20 20 20 20 20 20 19 19 20 21 21 21 21 23 23 23 23 23 23 23 24 24 24 24 24 25 25 26 26 27 28 29 29 29 30 31 32 34 36 37 38
21 20 19 19 19 19 19 18 18 18 18 19 20 20 21 21 22 22 22 23 23 23 23 23 23 23 23 24 25 26 27 27 27 27 28 28 29 30 31 32 34 35 36
21 20 19 18 18 18 19 18 18 18 19 20 20 21 20 20 20 21 22 23 23 23 23 23 23 23 23 24 25 26 26 26 26 27 28 28 29 29 29 30 31 32 34
20 20 18 18 18 18 19 19 19 19 19 19 20 19 20 20 20 21 21 21 21 22 23 23 22 23 23 24 24 24 25 26 27 28 28 28 29 29 30 29 30 31 33
19 19 18 18 18 18 19 19 19 18 18 19 19 20 20 20 21 21 21 21 21 21 22 21 21 21 22 22 23 24 25 25 26 26 27 28 28 28 29 30 30 30 31
19 18 18 17 18 18 18 18 19 18 18 19 20 19 19 19 20 20 20 20 20 20 20 20 20 21 22 22 22 22 23 24 24 24 26 27 28 29 29 30 30 30 30
18 19 18 18 18 18 18 18 18 18 18 18 18 18 18 19 20 19 19 18 18 19 19 20 20 20 21 21 21 22 22 23 23 24 25 26 27 28 28 28 28 29 29
18 18 18 18 17 17 17 17 17 17 16 17 17 17 17 17 18 19 20 19 18 18 19 19 20 20 20 21 21 21 22 23 23 24 24 25 26 27 26 26 27 27 27

GEFSMA_500_meanwind_228.txt.gz
Wind_Speed
20 20 20 20 20 20 20 19 19 19 20 21 21 21 21 22 22 21 21 22 22 21 20 20 20 20 19 19 20 20 20 20 21 21 21 21 21 21 20 19 19 19 19
19 19 20 20 20 20 19 19 19 19 19 20 21 21 21 22 22 22 22 22 22 22 22 21 21 20 21 21 20 20 21 21 21 22 21 21 22 21 21 20 19 19 20
19 20 20 20 20 20 19 19 20 20 19 20 20 21 21 22 22 23 23 23 23 23 22 22 23 22 22 21 21 21 22 22 21 21 21 21 22 22 22 21 21 21 20
20 20 21 21 21 20 20 20 21 21 21 20 21 21 21 22 23 23 23 23 23 23 23 23 23 23 23 23 23 22 22 22 22 22 22 21 21 22 22 23 22 22 22
21 21 22 21 21 20 20 21 21 21 23 22 22 22 21 22 23 23 24 24 24 24 24 24 24 24 23 23 23 23 22 22 23 23 23 22 22 22 22 23 23 23 23
22 22 22 22 22 21 21 22 22 22 23 23 23 23 22 22 23 23 24 24 24 24 24 24 24 24 24 24 23 23 23 23 23 23 24 23 23 23 23 23 23 23 23
23 23 23 23 23 22 22 23 23 23 23 24 24 24 24 24 23 24 24 24 24 24 24 24 24 24 24 24 24 24 24 23 23 23 23 24 24 24 24 23 23 24 24
23 24 24 24 24 23 22 22 22 22 22 24 24 24 24 25 24 24 24 24 24 25 25 24 24 24 24 24 24 24 24 23 23 23 23 24 24 24 24 24 24 25 25
24 24 24 24 24 23 23 23 23 22 22 22 23 24 24 24 24 24 25 24 24 24 23 24 24 23 23 23 23 24 24 24 24 23 23 24 24 24 24 25 25 26 26
25 25 25 25 25 24 24 24 24 23 23 22 23 24 24 24 24 24 24 25 25 24 24 24 24 24 24 23 23 24 24 25 25 25 24 24 25 25 25 25 26 26 27
25 25 25 25 25 24 24 24 24 24 23 23 23 23 23 24 24 25 25 25 25 25 25 24 24 24 24 24 24 25 25 25 26 26 26 26 26 26 26 26 26 27 28
25 25 24 24 24 24 24 25 25 24 24 24 24 23 24 24 24 24 25 25 26 26 26 25 25 25 25 25 25 26 26 26 26 26 26 27 27 27 27 27 27 28 29
24 24 24 24 24 25 25 25 25 25 25 25 24 24 24 24 24 24 25 25 26 25 26 26 25 25 25 25 26 26 27 27 27 27 28 28 28 28 29 29 28 29 30
24 23 24 24 25 25 26 25 25 25 25 25 24 24 24 24 24 24 25 25 24 24 25 25 25 25 26 26 26 27 27 28 28 29 29 29 30 30 30 30 30 30 31
23 24 24 24 25 25 26 25 25 25 25 25 24 24 24 24 24 24 25 25 24 24 25 25 24 25 26 26 26 27 28 29 29 29 30 30 30 31 31 31 31 31 31
23 23 24 25 25 25 25 25 26 26 25 25 25 24 23 24 25 25 25 25 25 25 24 24 24 24 25 26 27 27 28 29 29 29 29 29 30 31 31 32 32 33 32
24 24 24 25 24 24 24 25 25 25 25 24 24 24 24 24 25 25 25 25 25 25 24 24 23 24 25 26 27 27 28 28 29 29 29 29 30 30 31 32 32 33 33
24 25 25 24 24 23 24 24 24 24 24 24 24 24 24 25 26 26 25 25 25 24 24 23 23 23 24 24 25 26 27 27 28 28 29 29 30 30 31 32 32 32 32
24 24 24 24 24 23 23 23 23 23 23 23 24 24 25 25 25 25 25 24 23 22 23 23 22 23 23 24 25 25 25 26 27 28 29 29 30 31 31 31 31 31 32
23 23 23 23 23 22 23 23 23 23 23 23 23 24 25 25 25 25 24 24 24 23 23 23 23 23 22 23 24 25 25 26 27 28 29 29 29 30 30 31 31 31 31
23 23 22 22 23 23 23 23 24 24 23 23 23 23 23 23 24 23 23 23 22 23 23 23 22 23 22 22 23 23 25 25 26 26 27 27 28 29 30 31 31 31 32
22 22 21 22 22 23 23 24 23 22 22 22 22 22 22 22 22 21 21 21 21 21 22 23 22 22 22 22 23 23 24 25 26 26 27 26 27 28 29 30 31 32 32
22 22 22 22 21 21 22 22 21 20 20 21 20 20 19 19 19 18 18 19 20 20 21 22 23 23 23 23 23 24 24 25 25 26 27 27 28 28 29 30 31 32 32
23 23 23 22 21 20 20 20 19 19 18 19 19 18 17 17 18 18 18 19 20 20 21 21 22 22 23 23 24 24 24 24 24 26 27 28 27 28 28 29 30 31 32
23 23 22 21 20 20 19 19 18 18 17 17 17 17 17 17 17 18 18 19 20 20 20 21 22 23 23 23 23 24 24 24 25 26 27 27 27 27 27 28 29 30 31
22 21 20 20 20 19 19 18 18 17 16 16 17 17 18 18 19 18 18 19 20 21 20 21 22 23 23 22 23 24 24 25 25 25 26 26 26 26 27 28 28 29 29

GEFSMA_500_meanwind_234.txt.gz
Wind_Speed
16 16 16 16 16 16 17 17 17 18 18 19 20 20 20 20 20 20 20 20 21 21 21 20 20 19 19 19 19 19 19 19 20 20 20 20 20 19 19 19 19 19 19
15 16 16 17 17 17 17 17 18 18 18 19 19 19 20 21 21 21 21 21 21 22 22 22 22 21 20 20 21 21 20 20 21 21 21 21 20 20 20 20 20 20 20
15 15 15 16 16 17 17 18 18 18 19 19 20 20 20 20 21 21 22 22 22 22 23 23 23 22 22 22 22 22 22 22 21 21 21 21 21 21 20 20 21 20 20
16 16 16 16 17 17 17 18 18 19 19 20 21 21 21 21 21 22 22 21 22 22 23 23 24 23 23 24 23 23 23 23 22 22 21 21 21 21 20 20 20 20 21
18 18 18 18 18 18 18 18 18 19 19 20 20 20 21 21 21 22 23 23 23 23 23 24 24 24 24 24 24 24 24 24 24 23 22 21 22 22 22 22 21 21 22
19 19 20 20 19 19 19 19 19 19 19 20 21 20 21 21 22 22 23 23 23 23 23 23 24 24 25 25 24 24 24 24 23 23 23 22 22 23 23 23 22 22 22
21 21 21 21 21 20 20 19 19 20 20 20 20 20 21 22 22 22 23 23 23 23 24 24 24 25 25 25 25 24 25 25 25 24 23 23 22 22 23 23 23 23 23
23 23 22 22 22 22 21 21 21 20 20 20 20 20 20 21 22 22 23 24 24 24 24 24 24 25 25 25 25 25 25 25 26 25 24 24 24 24 24 24 24 24 24
23 23 23 23 23 23 22 21 22 21 21 21 21 21 20 20 20 22 23 24 24 24 24 24 24 25 26 27 26 26 26 26 26 26 26 25 25 25 25 25 25 25 24
23 23 23 23 23 24 23 23 23 22 22 22 22 22 22 22 22 22 23 24 24 24 24 25 26 26 26 26 26 26 27 27 27 27 27 26 25 25 26 26 26 27 26
23 23 23 24 24 25 25 24 24 24 24 23 23 23 23 23 23 23 23 24 25 25 25 25 25 26 27 27 27 27 28 28 27 27 27 26 26 25 25 26 26 27 27
23 23 23 24 25 25 24 25 25 25 25 25 24 24 24 24 24 24 24 24 24 26 25 25 25 26 26 27 27 27 28 28 27 27 28 27 25 25 25 26 26 27 27
22 23 24 24 25 25 26 26 25 25 26 25 25 25 25 25 25 25 25 24 24 25 26 26 26 26 26 26 27 28 28 28 28 28 29 28 27 26 26 26 27 27 28
23 23 24 24 25 25 26 26 26 26 26 26 25 25 25 26 26 26 26 26 26 26 27 28 28 27 26 27 27 27 28 28 28 28 29 29 29 28 28 28 28 29 29
23 24 24 24 24 25 26 26 26 26 26 26 26 26 27 27 27 27 26 27 27 27 27 28 28 28 28 28 27 27 28 28 29 28 29 30 30 29 29 29 29 29 29
23 23 24 24 24 24 25 25 26 26 26 27 27 27 27 27 28 27 26 26 26 26 25 25 26 27 27 27 28 28 28 28 28 29 29 29 30 30 29 29 30 30 30
23 23 23 24 24 24 24 25 26 27 27 27 28 28 28 28 28 28 26 26 25 26 25 25 24 25 25 25 27 27 28 28 29 29 29 30 30 30 30 30 30 30 31
23 23 23 23 24 25 24 24 25 25 26 26 27 27 27 27 27 27 26 26 25 25 25 25 24 25 24 24 25 27 27 28 28 29 29 30 30 30 30 30 30 30 30
22 23 23 23 24 24 24 24 24 25 25 26 27 26 26 26 26 26 25 25 25 25 25 25 25 24 24 24 25 26 27 27 28 29 29 30 30 30 31 31 31 30 31
22 23 23 23 23 22 23 23 24 25 25 25 25 25 25 24 24 25 26 26 25 25 25 25 24 23 23 24 25 26 27 27 28 29 30 31 31 31 31 31 31 31 31
23 22 22 23 23 23 22 23 23 24 24 24 24 24 24 24 24 25 25 26 26 25 25 24 24 23 23 24 24 24 25 26 26 27 28 29 30 30 30 31 31 31 32
24 23 22 22 22 22 23 23 23 23 23 23 23 22 23 24 23 24 24 24 25 25 25 24 24 24 23 23 23 23 24 24 25 26 27 28 28 29 30 30 31 31 31
24 23 23 23 23 23 23 23 23 22 22 22 22 22 23 23 22 22 23 23 23 24 24 24 24 23 22 22 22 22 23 24 24 25 27 28 29 29 29 29 30 31 31
24 24 24 24 23 23 23 22 22 21 20 20 20 21 22 23 22 23 23 23 23 23 23 23 23 22 21 22 22 23 23 23 24 26 27 28 28 28 28 29 29 30 31
24 24 23 23 23 22 21 20 20 19 19 19 19 20 20 21 22 23 23 23 23 22 22 23 23 23 23 22 22 23 24 24 24 25 26 27 27 27 28 28 29 30 31
23 23 22 22 21 19 19 18 18 18 19 19 19 19 19 19 20 21 22 22 23 23 23 23 23 23 23 23 24 25 25 24 24 24 24 25 26 27 27 28 29 30 31

GEFSMA_500_meanwind_240.txt.gz
Wind_Speed
16 15 14 15 16 16 16 16 16 16 16 16 16 16 16 17 16 16 17 18 18 18 18 19 19 19 19 19 19 19 19 19 19 19 18 19 19 19 18 18 18 19 19
16 16 16 16 16 16 17 17 17 17 17 18 18 18 17 18 18 18 19 19 19 20 20 19 20 20 21 20 20 20 20 20 20 20 20 20 20 20 19 18 18 18 19
17 17 17 16 16 17 17 18 18 19 19 19 19 19 18 18 19 20 20 20 20 21 21 21 21 21 22 22 22 21 21 21 21 21 21 21 21 20 20 19 19 19 19
18 18 17 17 17 17 18 18 19 20 20 20 19 19 19 20 20 20 21 21 21 21 22 22 22 23 23 23 23 23 23 23 23 22 22 22 21 20 20 20 20 20 20
19 18 18 18 18 19 19 19 20 21 21 21 20 20 20 21 20 20 21 22 23 22 23 24 24 24 25 25 25 25 25 25 24 23 23 23 22 22 22 22 22 21 21
19 19 19 19 19 20 20 21 22 22 22 22 21 21 21 22 22 22 22 23 24 24 24 25 25 25 25 26 26 26 26 26 26 25 24 23 23 23 23 23 23 22 22
21 20 21 21 21 21 22 23 23 23 23 22 23 22 22 23 23 24 24 24 24 24 25 26 26 26 26 27 27 27 26 26 26 26 26 25 24 23 23 23 24 23 23
21 22 22 22 22 22 23 23 24 24 23 23 23 23 23 23 23 24 24 25 24 24 25 26 27 27 27 28 28 28 27 27 27 26 26 26 25 24 24 24 24 24 24
22 23 23 23 22 22 23 23 24 24 24 24 23 23 23 23 24 25 26 25 24 25 25 26 26 26 27 27 28 28 28 28 28 27 26 26 26 26 26 25 25 25 25
23 23 24 23 24 24 24 24 24 24 25 25 25 25 25 25 25 25 25 25 25 25 25 25 26 27 27 27 28 28 28 28 29 28 28 27 28 28 27 26 26 26 26
22 22 23 24 24 24 24 25 25 25 25 26 26 26 26 26 26 26 26 26 26 27 26 26 26 27 27 27 28 28 29 28 29 29 29 29 29 28 28 28 27 26 27
21 22 23 24 25 26 26 26 26 25 26 26 27 27 27 26 27 27 27 27 27 27 27 26 26 26 26 27 27 28 28 29 29 29 29 29 29 29 28 29 28 27 27
22 22 23 24 25 26 27 26 27 26 27 27 27 27 27 27 27 27 28 28 27 27 27 27 27 27 26 26 26 27 28 29 29 29 29 29 29 29 29 29 28 28 28
22 23 24 25 25 26 26 26 27 27 27 28 27 27 27 27 27 28 28 28 27 28 28 28 28 28 28 27 26 27 27 28 29 30 29 29 29 29 28 28 28 28 28
23 24 25 25 25 26 26 26 27 28 28 28 28 28 29 28 28 28 28 28 28 28 28 28 28 28 29 28 27 27 27 27 27 28 29 28 29 29 28 28 28 28 28
23 24 24 25 25 25 26 27 27 28 29 29 30 30 29 29 30 30 29 30 30 29 28 28 28 28 29 28 28 28 27 27 27 27 29 30 30 30 29 29 29 28 29
24 25 25 25 25 25 26 26 27 28 29 29 30 30 31 31 31 30 30 30 30 29 29 29 28 28 28 28 27 28 28 28 28 27 28 30 31 31 31 30 30 30 29
24 25 25 25 25 26 25 26 26 27 27 28 29 29 30 31 31 30 30 30 29 29 29 29 28 28 27 27 28 28 29 29 29 29 29 30 31 31 31 31 31 31 30
23 24 24 25 25 24 25 25 26 27 27 27 28 28 29 29 29 29 29 29 28 28 28 27 27 27 27 28 29 29 29 30 30 29 29 31 32 32 32 32 32 31 31
23 24 24 24 24 24 25 25 26 26 26 26 26 27 27 27 28 28 28 28 28 28 28 27 27 27 27 28 29 29 29 29 29 30 30 30 32 33 33 32 32 32 32
24 24 25 24 24 25 25 25 25 25 26 26 25 25 26 26 27 28 29 29 28 28 28 28 27 27 27 27 29 29 29 30 30 30 30 30 31 32 33 33 33 32 33
24 25 25 25 24 23 24 23 24 25 26 26 25 25 26 26 27 27 28 28 28 28 28 28 27 27 27 27 28 28 28 29 29 30 30 30 30 30 31 32 33 33 33
25 25 24 24 23 23 23 23 23 24 24 25 26 26 27 27 28 28 29 29 29 29 29 28 28 27 27 28 28 28 28 28 29 29 30 29 29 30 31 31 31 32 33
25 25 24 24 23 23 23 23 23 23 23 23 24 25 25 26 26 27 29 29 29 29 29 29 28 27 27 27 28 28 28 28 28 28 28 28 28 29 29 30 30 30 31
25 25 24 23 23 23 22 22 21 22 21 21 21 22 24 24 24 25 26 26 27 28 28 28 28 28 27 27 27 28 28 28 27 27 28 28 28 29 29 29 29 29 29
25 25 23 23 22 22 22 21 21 20 21 21 21 21 22 23 23 24 24 24 25 26 27 28 27 27 27 27 27 27 27 27 27 27 27 28 28 28 28 28 28 29 29

GEFSMA_500_meanwind_246.txt.gz
Wind_Speed
14 15 14 15 14 15 15 15 16 16 16 16 15 15 15 15 16 16 16 16 17 17 18 17 17 18 18 18 18 18 18 18 18 19 19 19 19 19 19 20 20 19 19
15 15 15 15 15 15 16 17 16 17 16 16 16 17 16 16 17 17 18 18 18 18 19 19 19 19 19 19 19 19 19 19 19 19 20 20 20 20 20 20 20 20 19
16 16 16 16 16 16 16 16 16 17 17 17 18 18 18 18 18 19 19 19 19 19 20 20 21 20 20 21 21 21 20 21 20 20 21 21 21 21 21 21 20 20 19
18 17 17 16 16 16 17 17 17 17 18 19 19 20 20 19 19 20 20 20 20 21 21 21 22 22 21 22 22 22 22 22 22 22 22 22 22 22 22 22 21 21 20
18 18 18 18 18 18 18 18 17 18 19 20 20 21 21 21 21 21 21 21 21 21 22 22 23 23 22 23 23 23 23 23 23 23 23 23 23 23 23 23 23 22 21
18 19 19 18 19 19 18 18 18 19 20 21 22 22 22 23 22 22 21 22 22 22 23 23 23 23 23 23 24 24 24 24 24 24 24 24 24 24 24 24 24 23 22
19 20 19 19 19 19 19 19 19 20 21 22 23 23 24 24 24 23 23 23 23 23 23 24 24 24 24 24 24 25 25 26 25 25 24 24 24 24 24 24 23 23 23
21 21 20 20 20 20 20 21 21 21 21 22 22 23 23 24 24 24 24 24 24 24 24 24 24 24 25 25 25 26 25 26 26 25 25 25 25 24 24 24 24 24 24
21 22 21 21 21 21 21 22 22 21 21 21 21 21 22 23 24 25 25 25 25 26 26 26 26 26 26 26 27 26 26 26 26 26 26 26 26 25 24 25 26 26 26
22 21 22 22 22 22 22 21 22 21 21 21 22 22 23 24 25 25 26 26 26 27 27 27 27 27 28 28 27 27 26 26 26 27 26 27 27 26 26 25 26 27 27
22 21 21 22 22 23 22 23 24 24 24 23 23 23 24 25 26 27 27 27 28 28 28 27 27 28 29 29 28 28 27 27 27 27 27 27 27 27 27 26 27 27 28
21 20 21 21 22 23 23 24 25 25 25 25 25 25 26 27 27 28 28 29 29 29 28 28 28 28 28 29 29 29 29 28 27 28 28 28 28 27 28 28 27 28 28
20 20 22 23 23 24 24 25 25 26 27 26 27 27 27 28 29 29 29 30 30 30 30 29 29 29 29 29 29 30 30 29 29 29 29 29 28 28 28 28 28 28 28
21 21 23 25 25 25 25 25 26 26 27 27 28 28 29 29 30 30 30 31 31 31 31 31 31 30 29 30 30 30 29 30 30 30 29 29 28 28 28 29 29 29 29
21 22 23 24 25 25 26 26 26 27 27 28 28 29 29 30 30 31 31 31 32 31 31 31 31 30 30 30 31 31 30 30 30 30 30 29 29 28 29 29 28 28 29
22 22 23 24 24 25 26 26 27 27 28 28 29 30 30 31 31 32 32 31 31 31 30 30 30 30 30 30 31 31 31 31 30 30 30 30 29 29 29 29 29 28 29
23 23 24 24 24 25 27 28 28 28 28 29 30 31 31 31 31 31 31 31 31 31 30 30 31 30 30 31 30 32 32 32 31 30 30 31 30 30 30 30 30 29 29
24 24 24 25 25 25 27 27 27 27 28 29 29 30 30 30 30 30 30 30 31 31 31 31 31 31 31 31 31 31 31 32 31 31 31 31 31 30 30 30 30 30 30
23 24 24 25 24 25 25 26 26 26 27 27 28 28 28 28 28 29 29 30 30 30 31 31 32 32 32 32 32 32 32 32 31 31 32 32 31 31 31 31 31 31 31
24 24 24 24 24 24 24 24 25 25 26 27 27 27 27 27 27 28 29 29 29 30 31 31 31 31 32 32 32 33 32 31 31 32 32 32 32 31 31 31 31 31 32
24 24 23 24 24 24 25 24 25 25 25 25 26 27 27 27 28 28 28 28 29 29 30 30 30 30 31 32 32 32 32 31 32 32 32 33 33 32 31 31 31 32 32
25 24 24 24 24 24 24 23 24 24 24 25 26 27 27 28 28 28 28 29 29 29 29 29 29 29 30 30 31 32 32 31 31 31 32 32 32 31 31 31 31 32 32
25 25 24 24 24 24 23 23 24 25 25 25 25 26 27 28 28 29 29 29 29 29 28 28 28 29 29 29 30 30 30 30 30 30 31 31 31 31 31 31 31 31 31
25 25 24 24 24 23 23 23 24 25 25 25 25 25 26 26 27 27 27 27 28 27 27 27 28 28 28 28 28 29 28 28 29 29 30 29 29 30 30 30 31 31 32
25 25 25 24 24 23 23 23 24 24 23 23 23 23 24 25 25 26 26 26 27 27 27 27 27 28 28 28 28 28 28 29 29 29 29 29 29 30 30 30 30 31 31
24 24 25 24 24 24 24 24 23 23 22 22 22 22 23 24 24 24 25 25 25 25 26 26 27 27 27 27 27 27 28 28 28 29 29 29 29 30 30 30 31 31 31